Meteo pe oră la Abdulovka

Astăzi, 24 Iulie, Sâmbătă

Timp Temperatura Precipitaţii Vânt Presiune Umiditate
00:00 +16°C° 0 mm 2 m/s 738 mmHg 63%
01:00 +17°C° 0 mm 2 m/s 738 mmHg 63%
02:00 +17°C° 0 mm 2 m/s 738 mmHg 64%
03:00 +17°C° 0 mm 2 m/s 738 mmHg 64%
04:00 +17°C° 0 mm 2 m/s 738 mmHg 64%
05:00 +18°C° 0 mm 2 m/s 738 mmHg 65%
06:00 +18°C° 0 mm 2 m/s 739 mmHg 66%
07:00 +19°C° 0 mm 3 m/s 739 mmHg 61%
08:00 +21°C° 0 mm 3 m/s 739 mmHg 57%
09:00 +22°C° 0 mm 3 m/s 739 mmHg 52%
10:00 +23°C° 0 mm 4 m/s 739 mmHg 50%
11:00 +23°C° 0 mm 4 m/s 739 mmHg 48%
12:00 +25°C° 0 mm 4 m/s 739 mmHg 46%
13:00 +25°C° 0 mm 4 m/s 740 mmHg 47%
14:00 +23°C° 0 mm 4 m/s 740 mmHg 49%
15:00 +23°C° 0 mm 5 m/s 740 mmHg 50%
16:00 +22°C° 0.2 mm 4 m/s 740 mmHg 55%
17:00 +21°C° 0.2 mm 4 m/s 741 mmHg 60%
18:00 +21°C° 0.2 mm 4 m/s 741 mmHg 65%
19:00 +19°C° 0.1 mm 3 m/s 742 mmHg 69%
20:00 +18°C° 0.1 mm 3 m/s 742 mmHg 72%
21:00 +17°C° 0.1 mm 3 m/s 743 mmHg 75%
22:00 +17°C° 0 mm 3 m/s 743 mmHg 74%
23:00 +17°C° 0 mm 2 m/s 743 mmHg 73%

Mâine, 25 Iulie, Duminică

Timp Temperatura Precipitaţii Vânt Presiune Umiditate
00:00 +17°C° 0 mm 2 m/s 744 mmHg 72%
01:00 +16°C° 0 mm 2 m/s 744 mmHg 74%
02:00 +16°C° 0 mm 2 m/s 744 mmHg 76%
03:00 +14°C° 0 mm 3 m/s 745 mmHg 78%
04:00 +14°C° 0 mm 3 m/s 745 mmHg 78%
05:00 +14°C° 0 mm 3 m/s 746 mmHg 77%
06:00 +14°C° 0 mm 3 m/s 746 mmHg 77%
07:00 +17°C° 0 mm 3 m/s 746 mmHg 69%
08:00 +19°C° 0 mm 3 m/s 747 mmHg 61%
09:00 +20°C° 0 mm 3 m/s 747 mmHg 52%
10:00 +21°C° 0 mm 2 m/s 747 mmHg 48%
11:00 +23°C° 0 mm 2 m/s 747 mmHg 44%
12:00 +24°C° 0 mm 2 m/s 747 mmHg 40%
13:00 +24°C° 0 mm 2 m/s 747 mmHg 42%
14:00 +23°C° 0 mm 2 m/s 747 mmHg 44%
15:00 +22°C° 0 mm 3 m/s 748 mmHg 46%
16:00 +21°C° 0 mm 3 m/s 748 mmHg 48%
17:00 +21°C° 0 mm 3 m/s 748 mmHg 49%
18:00 +21°C° 0 mm 3 m/s 748 mmHg 51%
19:00 +20°C° 0 mm 3 m/s 748 mmHg 52%
20:00 +19°C° 0 mm 2 m/s 748 mmHg 54%
21:00 +19°C° 0 mm 2 m/s 749 mmHg 55%
22:00 +18°C° 0 mm 2 m/s 749 mmHg 54%
23:00 +18°C° 0 mm 2 m/s 749 mmHg 53%

Poimâine, 26 Iulie, Luni

Timp Temperatura Precipitaţii Vânt Presiune Umiditate
00:00 +18°C° 0 mm 2 m/s 749 mmHg 52%
01:00 +18°C° 0 mm 2 m/s 749 mmHg 52%
02:00 +18°C° 0 mm 2 m/s 749 mmHg 51%
03:00 +17°C° 0 mm 2 m/s 750 mmHg 51%
04:00 +18°C° 0 mm 1 m/s 750 mmHg 51%
05:00 +18°C° 0 mm 1 m/s 750 mmHg 50%
06:00 +18°C° 0 mm 1 m/s 750 mmHg 49%
07:00 +19°C° 0 mm 1 m/s 750 mmHg 47%
08:00 +20°C° 0 mm 1 m/s 751 mmHg 44%
09:00 +20°C° 0 mm 2 m/s 751 mmHg 42%
10:00 +22°C° 0 mm 1 m/s 751 mmHg 39%
11:00 +23°C° 0 mm 1 m/s 751 mmHg 36%
12:00 +25°C° 0 mm 1 m/s 751 mmHg 33%
13:00 +25°C° 0 mm 1 m/s 750 mmHg 33%
14:00 +25°C° 0 mm 2 m/s 750 mmHg 33%
15:00 +25°C° 0 mm 2 m/s 750 mmHg 33%
16:00 +24°C° 0 mm 2 m/s 750 mmHg 37%
17:00 +24°C° 0 mm 2 m/s 750 mmHg 40%
18:00 +24°C° 0 mm 2 m/s 750 mmHg 43%
19:00 +21°C° 0 mm 2 m/s 750 mmHg 45%
20:00 +20°C° 0 mm 2 m/s 750 mmHg 46%
21:00 +19°C° 0 mm 2 m/s 750 mmHg 48%
22:00 +18°C° 0 mm 2 m/s 750 mmHg 49%
23:00 +18°C° 0 mm 2 m/s 750 mmHg 50%

27 Iulie, Marţi

Timp Temperatura Precipitaţii Vânt Presiune Umiditate
00:00 +18°C° 0 mm 2 m/s 750 mmHg 51%
01:00 +17°C° 0 mm 2 m/s 750 mmHg 53%
02:00 +16°C° 0 mm 2 m/s 749 mmHg 55%
03:00 +16°C° 0 mm 2 m/s 749 mmHg 57%
04:00 +16°C° 0 mm 1 m/s 750 mmHg 57%
05:00 +18°C° 0 mm 1 m/s 750 mmHg 56%
06:00 +19°C° 0 mm 1 m/s 750 mmHg 56%
07:00 +20°C° 0 mm 2 m/s 750 mmHg 50%
08:00 +23°C° 0 mm 2 m/s 750 mmHg 45%
09:00 +24°C° 0 mm 3 m/s 750 mmHg 39%
10:00 +25°C° 0 mm 3 m/s 749 mmHg 37%
11:00 +26°C° 0 mm 3 m/s 749 mmHg 35%
12:00 +27°C° 0 mm 4 m/s 749 mmHg 33%
13:00 +27°C° 0 mm 4 m/s 749 mmHg 34%
14:00 +27°C° 0 mm 4 m/s 748 mmHg 34%
15:00 +27°C° 0 mm 4 m/s 748 mmHg 34%
16:00 +26°C° 0 mm 4 m/s 748 mmHg 38%
17:00 +25°C° 0 mm 3 m/s 748 mmHg 42%
18:00 +24°C° 0 mm 3 m/s 748 mmHg 46%
19:00 +22°C° 0 mm 3 m/s 748 mmHg 51%
20:00 +20°C° 0 mm 2 m/s 748 mmHg 55%
21:00 +19°C° 0 mm 2 m/s 747 mmHg 60%
22:00 +18°C° 0 mm 2 m/s 747 mmHg 60%
23:00 +18°C° 0 mm 2 m/s 747 mmHg 60%

28 Iulie, Miercuri

Timp Temperatura Precipitaţii Vânt Presiune Umiditate
00:00 +18°C° 0 mm 2 m/s 747 mmHg 60%
01:00 +17°C° 0 mm 2 m/s 747 mmHg 61%
02:00 +17°C° 0 mm 2 m/s 747 mmHg 62%
03:00 +17°C° 0 mm 2 m/s 747 mmHg 63%
04:00 +18°C° 0 mm 2 m/s 747 mmHg 64%
05:00 +18°C° 0 mm 2 m/s 747 mmHg 64%
06:00 +19°C° 0 mm 2 m/s 747 mmHg 64%
07:00 +21°C° 0 mm 2 m/s 747 mmHg 59%
08:00 +24°C° 0 mm 3 m/s 747 mmHg 53%
09:00 +26°C° 0 mm 3 m/s 747 mmHg 47%
10:00 +27°C° 0 mm 3 m/s 747 mmHg 43%
11:00 +28°C° 0 mm 4 m/s 747 mmHg 40%
12:00 +29°C° 0 mm 4 m/s 746 mmHg 36%
13:00 +29°C° 0 mm 4 m/s 746 mmHg 34%
14:00 +29°C° 0 mm 4 m/s 746 mmHg 32%
15:00 +30°C° 0 mm 4 m/s 745 mmHg 31%
16:00 +29°C° 0 mm 3 m/s 745 mmHg 34%
17:00 +28°C° 0 mm 3 m/s 745 mmHg 37%
18:00 +28°C° 0 mm 3 m/s 745 mmHg 41%
19:00 +26°C° 0 mm 2 m/s 745 mmHg 45%
20:00 +24°C° 0 mm 2 m/s 745 mmHg 50%
21:00 +22°C° 0 mm 1 m/s 745 mmHg 55%
22:00 +21°C° 0 mm 1 m/s 745 mmHg 56%
23:00 +21°C° 0 mm 1 m/s 745 mmHg 56%

29 Iulie, Joi

Timp Temperatura Precipitaţii Vânt Presiune Umiditate
00:00 +20°C° 0 mm 1 m/s 745 mmHg 57%
01:00 +20°C° 0 mm 1 m/s 745 mmHg 58%
02:00 +20°C° 0 mm 1 m/s 745 mmHg 59%
03:00 +18°C° 0 mm 2 m/s 745 mmHg 59%
04:00 +19°C° 0 mm 2 m/s 745 mmHg 59%
05:00 +19°C° 0 mm 2 m/s 745 mmHg 59%
06:00 +20°C° 0 mm 2 m/s 745 mmHg 59%
07:00 +23°C° 0 mm 2 m/s 744 mmHg 53%
08:00 +25°C° 0 mm 3 m/s 744 mmHg 47%
09:00 +27°C° 0 mm 4 m/s 744 mmHg 41%
10:00 +28°C° 0 mm 4 m/s 744 mmHg 37%
11:00 +30°C° 0 mm 4 m/s 743 mmHg 34%
12:00 +32°C° 0 mm 5 m/s 743 mmHg 30%
13:00 +29°C° 0 mm 6 m/s 743 mmHg 36%
14:00 +27°C° 0 mm 7 m/s 743 mmHg 41%
15:00 +24°C° 0 mm 8 m/s 743 mmHg 46%
16:00 +23°C° 0.3 mm 6 m/s 742 mmHg 56%
17:00 +21°C° 0.3 mm 4 m/s 742 mmHg 66%
18:00 +20°C° 0.3 mm 3 m/s 741 mmHg 76%
19:00 +20°C° 0.1 mm 3 m/s 741 mmHg 76%
20:00 +20°C° 0.1 mm 3 m/s 741 mmHg 77%
21:00 +20°C° 0.1 mm 3 m/s 741 mmHg 78%
22:00 +19°C° 0.4 mm 3 m/s 740 mmHg 79%
23:00 +19°C° 0.4 mm 3 m/s 740 mmHg 80%
Arată mai mult

Formular de consimțământ

Meteoprog și furnizorii noștri de servicii pot stoca și accesa date personale, precum cookies, identificatori de dispozitiv sau alte tehnologii similare pe dispozitivul dumneavoastră și procesa astfel de date pentru a personaliza conținutul și reclamele, dar și pentru a oferi caracteristici de social media și pentru a analiza traficul.

  • Stocarea și/sau accesarea informațiilor pe dispozitivul dumneavoastră

    Cookies, identificatori de dispozitiv sau alte informații pot fi stocate sau accesate pe dispozitiv în scopurile indicate mai sus.

  • Reclame și conținut personalizat, evaluarea reclamelor și a conținutului, informații despre audiențe și dezvoltarea produselor

    Reclamele și conținutul pot fi personalizate pe baza unui profil. Pot fi adăugate date suplimentare pentru a personaliza mai bine reclamele și conținutul. Performanța reclamelor și conținutului poate fi măsurată. Pot fi obținute informații despre utilizatorii care au văzut reclamele și conținutul. Aceste date pot fi utilizate pentru a dezvolta sau îmbunătăți experiența utilizatorilor, sistemele și software-ul.

Dând clic pe ‘Sunt de acord’, permiteți utilizarea cookie-urilor menționate, a identificatorilor de dispozitiv, balizelor web sau altor tehnologii similare. Setările pot fi modificate din browser-ul dispozitivului dumneavoastră.

În anumite scopuri, interesele legitime pot prima asupra consimțământului. Puteți citi mai multe informații în acest sens în Politica privind Confidențialitatea Datelor și Cookie.